Location: Rio Negrinho
(26.2394°S, 49.4999°W)
Time: 23:52:26
(UTC+00:00)

NOAA 6 - Visible Passes

Search period start: 01 October 2020 00:00
Search period end: 11 October 2020 00:00
Orbit: 773 x 786 km, 98.7° (Epoch: 01 October)

Date Brightness Start Highest point End Pass type
(mag) Time Alt. Az. Time Alt. Az. Time Alt. Az.
02 Oct 5.0 08:09:41 10° NNE 08:14:41 53° ESE 08:19:44 10° S visible
02 Oct 7.0 22:09:13 10° SSW 22:12:45 19° WSW 22:16:17 10° WNW visible
03 Oct 6.6 07:38:19 10° ENE 07:42:22 24° ESE 07:46:26 10° SSE visible
03 Oct 5.6 21:35:38 10° S 21:40:28 42° WSW 21:45:16 10° NW visible
04 Oct 7.5 07:09:28 10° ESE 07:10:11 10° ESE 07:10:54 10° ESE visible
05 Oct 4.9 08:11:19 10° NNE 08:16:21 55° ESE 08:21:24 10° S visible
05 Oct 7.1 22:10:57 10° SSW 22:14:24 18° WSW 22:17:50 10° WNW visible
06 Oct 6.5 07:39:55 10° NE 07:44:01 25° ESE 07:48:09 10° SSE visible
06 Oct 5.7 21:37:19 10° S 21:42:07 40° WSW 21:46:54 10° NW visible
07 Oct 7.5 07:10:41 10° E 07:11:50 11° ESE 07:13:00 10° SE visible
08 Oct 4.9 08:12:58 10° NNE 08:18:00 57° ESE 08:23:05 10° S visible
08 Oct 7.1 22:12:41 10° SSW 22:16:02 18° WSW 22:19:23 10° WNW visible
09 Oct 6.5 07:41:30 10° NE 07:45:40 25° ESE 07:49:51 10° SSE visible
09 Oct 5.8 21:39:00 10° S 21:43:46 39° WSW 21:48:31 10° NW visible
10 Oct 7.5 07:12:00 10° E 07:13:28 11° ESE 07:14:57 10° SE visible
